Location: Unspecified
(0.0000°N, 0.0000°E)
Time: 22:26:55
(UTC+00:00)

ISS - Pass Details

Date: 17 May 2018
Orbit: 402 x 407 km, 51.6° (Epoch: 24 May)

Event Time Altitude Azimuth Distance (km) Brightness Sun altitude
Rises 18:43:34 0° 187° (S) 2,322 -0.1 -11.1°
Reaches altitude 10° 18:46:21 10° 161° (SSE) 1,458 -1.4 -11.8°
Enters shadow 18:46:55 12° 153° (SSE) 1,344 -1.6 -11.9°
